Location: D�rnast
(49.6426°N, 11.9755°E)
Time: 20:23:23
(UTC+00:00)

Cosmos 2082 Rocket - Pass Details

Date: 24 January 2021
Orbit: 832 x 855 km, 71.0° (Epoch: 02 March)

Event Time Altitude Azimuth Distance (km) Brightness Sun altitude
Rises 16:50:21 0° 333° (NNW) 3,437 5.5 -9.1°
Reaches altitude 10° 16:53:31 10° 351° (N) 2,498 4.6 -9.6°
Maximum altitude 16:57:40 20° 37° (NE) 1,878 3.6 -10.2°
Enters shadow 17:00:43 14° 75° (ENE) 2,225 3.7 -10.7°
